Claresholm, Alberta

3:06 AM MST on December 13, 2017 (GMT -0700)
Claresholm

Weather History for CWDK - October, 2012

Change the Weather History Date:

Monday, October 15, 2012

  Actual Average Record
Temperature  
Mean Temperature 56 °F -  
Max Temperature 66 °F - - ()
Min Temperature 47 °F - - ()
Degree Days  
Heating Degree Days 8    
Growing Degree Days 6 (Base 50)    
Moisture  
Dew Point 36 °F    
Average Humidity 47    
Maximum Humidity 68    
Minimum Humidity 22    
Precipitation  
Precipitation 0.00 in - - ()
Sea Level Pressure  
Sea Level Pressure 29.66 in    
Wind  
Wind Speed 12 mph ()    
Max Wind Speed 23 mph    
Max Gust Speed 29 mph    
T = Trace of Precipitation, MM = Missing Value Source: Averaged Metar Reports

Daily Weather History Graph

Daily Weather History Graph

Search for Another Location

Airport or City:

Trip Planner

Search our weather history database for the weather conditions in past years. The results will help you decide how hot, cold, wet, or windy it might be!

Date:

Astronomy

Oct. 15, 2012 Rise Set
Actual Time 7:57 AM MDT 6:42 PM MDT
Civil Twilight 7:24 AM MDT 7:14 PM MDT
Nautical Twilight 6:47 AM MDT 7:52 PM MDT
Astronomical Twilight 6:09 AM MDT 8:29 PM MDT
Moon 8:19 AM MDT (10/15) 6:35 PM MDT (10/15)
Length of Visible Light 11h 49m
Length of Day
10h 44m
New Moon, 0% of the Moon is Illuminated
Oct 15
New Moon
Oct 21
First Quarter
Oct 29
Full
Nov 6
Last Quarter
Nov 13
New

Hourly Weather History & Observations

Time (MDT) Temp. Dew Point Humidity Pressure Visibility Wind Dir Wind Speed Gust Speed Precip Events Conditions
12:00 AM 48 °F 38 °F 57% 29.70 in - SW 8.1 mph - -  
12:00 AM 47.7 °F 37.6 °F 68% 29.70 in - SW 8.1 mph - N/A   Unknown
1:00 AM 56.8 °F 37.9 °F 49% 29.66 in - West 17.3 mph 25.3 mph N/A   Unknown
2:00 AM 53.2 °F 38.1 °F 57% 29.67 in - West 6.9 mph - N/A   Unknown
3:00 AM 56.5 °F 38.7 °F 51% 29.65 in - WSW 15.0 mph 20.7 mph N/A   Unknown
4:00 AM 56.8 °F 39.9 °F 53% 29.66 in - West 11.5 mph 20.7 mph N/A   Unknown
5:00 AM 54.7 °F 38.5 °F 54% 29.65 in - NW 12.7 mph 19.6 mph N/A   Unknown
6:00 AM 56 °F 39 °F 42% 29.66 in - WSW 15.0 mph - -  
6:00 AM 56.3 °F 39.2 °F 53% 29.66 in - WSW 15.0 mph 23.0 mph N/A   Unknown
7:00 AM 53.1 °F 39.2 °F 59% 29.68 in - West 12.7 mph - N/A   Unknown
9:00 AM 54.1 °F 39.0 °F 57% 29.71 in - West 17.3 mph - N/A   Unknown
10:00 AM 56.8 °F 40.3 °F 54% 29.72 in - WSW 12.7 mph - N/A   Unknown
11:00 AM 59.2 °F 39.7 °F 49% 29.72 in - WSW 21.9 mph 27.6 mph N/A   Unknown
12:00 PM 60 °F 39 °F 33% 29.71 in - West 12.7 mph - -  
12:00 PM 59.9 °F 38.7 °F 45% 29.71 in - West 12.7 mph - N/A   Unknown
1:00 PM 63.1 °F 36.7 °F 37% 29.68 in - West 17.3 mph 24.2 mph N/A   Unknown
2:00 PM 65.1 °F 34.0 °F 31% 29.68 in - West 20.7 mph - N/A   Unknown
3:00 PM 64.9 °F 34.0 °F 32% 29.67 in - WSW 19.6 mph - N/A   Unknown
4:00 PM 64.4 °F 31.6 °F 29% 29.67 in - West 20.7 mph - N/A   Unknown
5:00 PM 62.1 °F 31.8 °F 32% 29.67 in - WSW 23.0 mph 28.8 mph N/A   Unknown
6:00 PM 60 °F 31 °F 22% 29.66 in - WSW 19.6 mph - -  
6:00 PM 59.5 °F 31.5 °F 35% 29.66 in - WSW 19.6 mph 25.3 mph N/A   Unknown
7:00 PM 48.6 °F 31.5 °F 52% 29.67 in - SW 4.6 mph - N/A   Unknown
8:00 PM 48.0 °F 33.8 °F 58% 29.64 in - South 10.4 mph - N/A   Unknown
9:00 PM 49.1 °F 34.5 °F 57% 29.61 in - SSW 10.4 mph - N/A   Unknown
10:00 PM 52.7 °F 33.1 °F 47% 29.55 in - SSW 9.2 mph - N/A   Unknown
11:00 PM 52.7 °F 35.4 °F 52% 29.49 in - SSE 13.8 mph 21.9 mph N/A   Unknown